Tracking 28125 objects as of 3-Oct-2023
HD Live streaming from Space Station
objects crossing your sky now

STARLINK-4763

Track STARLINK-4763 now!
10-day predictions
STARLINK-4763 is classified as:


NORAD ID: 53805
Int'l Code: 2022-111AJ
Perigee: 545.7 km
Apogee: 548.0 km
Inclination: 53.2 °
Period: 95.4 minutes
Semi major axis: 6917 km
RCS: Unknown
Launch date: September 11, 2022
Source: United States (US)
Launch site: AIR FORCE EASTERN TEST RANGE (AFETR)
Your satellite tracking list
Your tracking list is empty




NASA's NSSDC Master Catalog

Two Line Element Set (TLE):
1 53805U 22111AJ  23276.40225481  .00003662  00000-0  24801-3 0  9999
2 53805  53.2157 276.9260 0001711  95.2249 264.8938 15.08850232 59119
Source of the keplerian elements: AFSPC